| time (UTC) | temp F | wind direction | speed MPH | gust MPH | rain 1hr in | rain 24hr in | rain mn in | humidity % | barometer mb |
| 20260502191515 | 43 | 343 | 6.0 | 0.0 | 0.00 | 0.00 | 0.01 | 100 | 1012.9 |
| 20260502190057 | 43 | 345 | 5.0 | 0.0 | 0.00 | 0.00 | 0.01 | 100 | 1013.1 |
| 20260502184555 | 44 | 350 | 5.0 | 0.0 | 0.00 | 0.00 | 0.01 | 100 | 1013.0 |
| 20260502183140 | 43 | 329 | 5.0 | 0.0 | 0.00 | 0.00 | 0.01 | 100 | 1013.0 |
| 20260502181534 | 43 | 306 | 4.0 | 0.0 | 0.00 | 0.00 | 0.01 | 100 | 1013.0 |
| 20260502163023 | 42 | 338 | 7.0 | 0.0 | 0.00 | 0.00 | 0.01 | 100 | 1013.1 |
| 20260502161512 | 42 | 346 | 8.0 | 0.0 | 0.00 | 0.00 | 0.01 | 100 | 1013.0 |
| 20260502160105 | 42 | 351 | 9.0 | 0.0 | 0.00 | 0.00 | 0.01 | 100 | 1013.0 |
| 20260502151537 | 42 | 329 | 8.0 | 0.0 | 0.00 | 0.00 | 0.01 | 100 | 1013.2 |
| 20260502150129 | 42 | 336 | 8.0 | 0.0 | 0.00 | 0.00 | 0.01 | 100 | 1013.1 |
| 20260502123057 | 41 | 319 | 9.0 | 0.0 | 0.00 | 0.00 | 0.01 | 100 | 1013.6 |
| 20260502121552 | 41 | 319 | 11.0 | 0.0 | 0.00 | 0.00 | 0.01 | 100 | 1013.5 |
| 20260502120140 | 41 | 317 | 10.0 | 0.0 | 0.00 | 0.00 | 0.01 | 100 | 1013.5 |
| 20260502114529 | 40 | 315 | 11.0 | 0.0 | 0.00 | 0.00 | 0.01 | 100 | 1013.3 |
| 20260502113019 | 40 | 319 | 11.0 | 0.0 | 0.00 | 0.00 | 0.01 | 100 | 1013.3 |
| 20260502111509 | 40 | 316 | 11.0 | 0.0 | 0.00 | 0.00 | 0.01 | 100 | 1013.0 |
| 20260502104553 | 40 | 319 | 11.0 | 0.0 | 0.00 | 0.00 | 0.01 | 100 | 1012.8 |
| 20260502103058 | 40 | 313 | 12.0 | 0.0 | 0.00 | 0.00 | 0.01 | 100 | 1012.6 |
| 20260502070133 | 43 | 294 | 3.0 | 0.0 | 0.00 | 0.00 | 0.00 | 100 | 1011.1 |
| 20260502064623 | 42 | 248 | 1.0 | 0.0 | 0.00 | 0.00 | 0.00 | 100 | 1010.9 |
| 20260502063025 | 42 | 248 | 2.0 | 0.0 | 0.00 | 0.00 | 0.00 | 100 | 1011.1 |
| 20260502061505 | 42 | 209 | 1.0 | 0.0 | 0.00 | 0.00 | 0.00 | 100 | 1011.2 |
| 20260502060057 | 42 | 209 | 1.0 | 0.0 | 0.00 | 0.00 | 0.00 | 100 | 1011.0 |
| 20260502054547 | 42 | 209 | 3.0 | 0.0 | 0.00 | 0.00 | 0.00 | 100 | 1011.3 |
| 20260502053140 | 42 | 209 | 3.0 | 0.0 | 0.00 | 0.00 | 0.00 | 100 | 1011.4 |
| 20260502051533 | 42 | 209 | 3.0 | 0.0 | 0.00 | 0.00 | 0.00 | 100 | 1011.5 |
| 20260502050024 | 42 | 196 | 2.0 | 0.0 | 0.00 | 0.00 | 0.00 | 100 | 1011.6 |
| 20260502044513 | 41 | 181 | 2.0 | 0.0 | 0.00 | 0.00 | 0.00 | 100 | 1011.7 |
| 20260502043004 | 42 | 181 | 1.0 | 0.0 | 0.00 | 0.00 | 0.00 | 100 | 1011.5 |
| 20260502041556 | 42 | 181 | 1.0 | 0.0 | 0.00 | 0.00 | 0.00 | 100 | 1011.5 |
| 20260502040045 | 42 | 181 | 2.0 | 0.0 | 0.00 | 0.00 | 0.00 | 100 | 1011.5 |
| 20260502033129 | 42 | 181 | 1.0 | 0.0 | 0.00 | 0.00 | 0.01 | 100 | 1011.4 |
| 20260502031522 | 42 | 180 | 1.0 | 0.0 | 0.00 | 0.00 | 0.01 | 100 | 1011.5 |
| 20260502030011 | 42 | 181 | 0.0 | 0.0 | 0.00 | 0.00 | 0.01 | 100 | 1011.6 |
| 20260502024602 | 42 | 180 | 0.0 | 0.0 | 0.00 | 0.00 | 0.01 | 100 | 1011.6 |
| 20260502023055 | 42 | 181 | 1.0 | 0.0 | 0.00 | 0.00 | 0.01 | 100 | 1011.5 |
| 20260502021545 | 42 | 181 | 2.0 | 0.0 | 0.00 | 0.00 | 0.01 | 100 | 1011.7 |
| 20260502020034 | 42 | 180 | 3.0 | 0.0 | 0.00 | 0.00 | 0.01 | 100 | 1011.7 |
| 20260502013015 | 42 | 182 | 4.0 | 0.0 | 0.00 | 0.00 | 0.01 | 100 | 1011.4 |
| 20260502011506 | 42 | 182 | 4.0 | 0.0 | 0.00 | 0.00 | 0.01 | 100 | 1011.3 |
| 20260502010056 | 42 | 182 | 4.0 | 0.0 | 0.00 | 0.00 | 0.01 | 100 | 1011.1 |
| 20260502004648 | 42 | 174 | 6.0 | 0.0 | 0.00 | 0.00 | 0.01 | 100 | 1011.0 |
| 20260502003140 | 43 | 175 | 3.0 | 0.0 | 0.00 | 0.00 | 0.01 | 100 | 1010.9 |
| 20260502001530 | 42 | 303 | 0.0 | 0.0 | 0.00 | 0.00 | 0.00 | 100 | 1010.9 |
| 20260502000020 | 42 | 303 | 0.0 | 0.0 | 0.00 | 0.00 | 0.00 | 100 | 1010.9 |
| 20260501234511 | 42 | 303 | 1.0 | 0.0 | 0.00 | 0.00 | 0.00 | 100 | 1010.9 |
| 20260501233103 | 42 | 303 | 2.0 | 0.0 | 0.00 | 0.00 | 0.00 | 100 | 1010.9 |
| 20260501231654 | 42 | 303 | 2.0 | 0.0 | 0.00 | 0.00 | 0.00 | 100 | 1010.8 |
| 20260501230144 | 42 | 303 | 3.0 | 0.0 | 0.00 | 0.00 | 0.00 | 100 | 1010.7 |
| 20260501224539 | 43 | 303 | 3.0 | 0.0 | 0.00 | 0.00 | 0.00 | 100 | 1010.7 |
| 20260501223126 | 43 | 306 | 2.0 | 0.0 | 0.00 | 0.00 | 0.00 | 100 | 1010.7 |
| 20260501221519 | 43 | 306 | 3.0 | 0.0 | 0.00 | 0.00 | 0.00 | 13 | 1010.8 |
| 20260501220007 | 44 | 300 | 3.0 | 0.0 | 0.00 | 0.00 | 0.00 | 17 | 1010.8 |
| 20260501214659 | 44 | 305 | 3.0 | 0.0 | 0.00 | 0.00 | 0.00 | 25 | 1010.6 |
| 20260501211541 | 45 | 349 | 1.0 | 0.0 | 0.00 | 0.00 | 0.00 | 32 | 1010.3 |
| 20260501210133 | 45 | 349 | 1.0 | 0.0 | 0.00 | 0.00 | 0.00 | 34 | 1010.2 |
| 20260501204524 | 45 | 349 | 2.0 | 0.0 | 0.00 | 0.00 | 0.00 | 46 | 1010.3 |
| 20260501203118 | 46 | 349 | 3.0 | 0.0 | 0.00 | 0.00 | 0.00 | 42 | 1010.3 |
| 20260501201605 | 46 | 355 | 1.0 | 0.0 | 0.00 | 0.00 | 0.00 | 35 | 1010.4 |
| 20260501200057 | 45 | 5 | 1.0 | 0.0 | 0.00 | 0.00 | 0.00 | 29 | 1010.5 |
| 20260501194649 | 44 | 5 | 1.0 | 0.0 | 0.00 | 0.00 | 0.00 | 32 | 1010.6 |
| 20260501193039 | 44 | 5 | 0.0 | 0.0 | 0.00 | 0.00 | 0.00 | 25 | 1010.6 |